Tracking 22780 objects as of 11-Apr-2021
HD Live streaming from Space Station
objects crossing your sky now

USA 82

Track USA 82 now!
USA 82 is classified as:


NORAD ID: 22009
Int'l Code: 1992-037A
Perigee: 36,150.0 km
Apogee: 36,265.2 km
Inclination: 13.0 °
Period: 1,457.3 minutes
Semi major axis: 42578 km
RCS: Unknown
Launch date: July 2, 1992
Source: United States (US)
Launch site: AIR FORCE EASTERN TEST RANGE (AFETR)

Super High Frequency (SHF) for U.S. government and military; sophisticated survivability enhancement; worldwide, longhaul coverage; X-band.
aabbcc
Your satellite tracking list
Your tracking list is empty




NASA's NSSDC Master Catalog

Two Line Element Set (TLE):
1 22009U 92037A   21100.56956045 -.00000116  00000-0  00000-0 0  9997
2 22009  12.9826  22.7656 0013537   1.6750 215.3071  0.98813446  6434
Source of the keplerian elements: McCants